• In Belgien
  • Länderverzeichnis
  • Für 7 Tage
  • Wassertemperatur
  • Satellitenkarten
  • Wetterkarte
  • Widgets
  • user-avatar
    Anmelden

    Stündliche Wetter Fier

    Heute, 19 September, Mittwoch

    Zeit Temperatur Niederschläge Wind Luftdruck Luftfeuchtigkeit
    00:00 +24°C° 0 mm 1 m/S 763 mmHg 56%
    01:00 +24°C° 0 mm 1 m/S 763 mmHg 56%
    02:00 +23°C° 0 mm 1 m/S 763 mmHg 57%
    03:00 +23°C° 0 mm 1 m/S 763 mmHg 58%
    04:00 +23°C° 0 mm 1 m/S 763 mmHg 59%
    05:00 +24°C° 0 mm 2 m/S 763 mmHg 58%
    06:00 +25°C° 0 mm 2 m/S 763 mmHg 56%
    07:00 +26°C° 0 mm 2 m/S 763 mmHg 55%
    08:00 +28°C° 0 mm 1 m/S 763 mmHg 49%
    09:00 +30°C° 0 mm 1 m/S 763 mmHg 43%
    10:00 +32°C° 0 mm 1 m/S 763 mmHg 37%
    11:00 +33°C° 0 mm 1 m/S 762 mmHg 35%
    12:00 +34°C° 0 mm 2 m/S 762 mmHg 33%
    13:00 +35°C° 0 mm 3 m/S 762 mmHg 32%
    14:00 +34°C° 0 mm 3 m/S 762 mmHg 33%
    15:00 +34°C° 0 mm 3 m/S 761 mmHg 35%
    16:00 +33°C° 0 mm 3 m/S 761 mmHg 37%
    17:00 +30°C° 0 mm 2 m/S 761 mmHg 43%
    18:00 +28°C° 0 mm 2 m/S 762 mmHg 49%
    19:00 +26°C° 0 mm 1 m/S 762 mmHg 55%
    20:00 +25°C° 0 mm 1 m/S 762 mmHg 55%
    21:00 +25°C° 0 mm 1 m/S 762 mmHg 56%
    22:00 +25°C° 0 mm 1 m/S 762 mmHg 56%
    23:00 +25°C° 0 mm 1 m/S 762 mmHg 56%

    Morgen, 20 September, Donnerstag

    Zeit Temperatur Niederschläge Wind Luftdruck Luftfeuchtigkeit
    00:00 +24°C° 0 mm 1 m/S 762 mmHg 56%
    01:00 +24°C° 0 mm 1 m/S 762 mmHg 56%
    02:00 +24°C° 0 mm 1 m/S 762 mmHg 57%
    03:00 +24°C° 0 mm 1 m/S 762 mmHg 58%
    04:00 +23°C° 0 mm 1 m/S 762 mmHg 58%
    05:00 +24°C° 0 mm 1 m/S 762 mmHg 57%
    06:00 +25°C° 0 mm 1 m/S 762 mmHg 55%
    07:00 +26°C° 0 mm 1 m/S 762 mmHg 53%
    08:00 +28°C° 0 mm 1 m/S 762 mmHg 47%
    09:00 +30°C° 0 mm 1 m/S 762 mmHg 41%
    10:00 +32°C° 0 mm 1 m/S 762 mmHg 35%
    11:00 +33°C° 0 mm 1 m/S 762 mmHg 34%
    12:00 +34°C° 0 mm 2 m/S 761 mmHg 33%
    13:00 +35°C° 0 mm 3 m/S 761 mmHg 31%
    14:00 +34°C° 0 mm 3 m/S 761 mmHg 34%
    15:00 +33°C° 0 mm 3 m/S 761 mmHg 37%
    16:00 +31°C° 0 mm 3 m/S 760 mmHg 40%
    17:00 +30°C° 0 mm 2 m/S 760 mmHg 46%
    18:00 +28°C° 0 mm 2 m/S 761 mmHg 53%
    19:00 +26°C° 0 mm 1 m/S 761 mmHg 59%
    20:00 +25°C° 0 mm 1 m/S 761 mmHg 59%
    21:00 +25°C° 0 mm 1 m/S 761 mmHg 59%
    22:00 +25°C° 0 mm 1 m/S 762 mmHg 60%
    23:00 +24°C° 0 mm 1 m/S 761 mmHg 59%

    übermorgen, 21 September, Freitag

    Zeit Temperatur Niederschläge Wind Luftdruck Luftfeuchtigkeit
    00:00 +24°C° 0 mm 1 m/S 761 mmHg 58%
    01:00 +24°C° 0 mm 1 m/S 761 mmHg 57%
    02:00 +24°C° 0 mm 1 m/S 761 mmHg 56%
    03:00 +23°C° 0 mm 1 m/S 761 mmHg 56%
    04:00 +23°C° 0 mm 1 m/S 761 mmHg 55%
    05:00 +24°C° 0 mm 1 m/S 761 mmHg 54%
    06:00 +25°C° 0 mm 1 m/S 762 mmHg 52%
    07:00 +26°C° 0 mm 1 m/S 762 mmHg 50%
    08:00 +28°C° 0 mm 1 m/S 762 mmHg 45%
    09:00 +30°C° 0 mm 1 m/S 762 mmHg 41%
    10:00 +32°C° 0 mm 1 m/S 762 mmHg 36%
    11:00 +34°C° 0 mm 2 m/S 762 mmHg 35%
    12:00 +34°C° 0 mm 2 m/S 761 mmHg 33%
    13:00 +35°C° 0 mm 3 m/S 761 mmHg 32%
    14:00 +34°C° 0 mm 3 m/S 761 mmHg 36%
    15:00 +33°C° 0 mm 3 m/S 761 mmHg 40%
    16:00 +31°C° 0 mm 3 m/S 760 mmHg 44%
    17:00 +29°C° 0 mm 2 m/S 761 mmHg 51%
    18:00 +27°C° 0 mm 1 m/S 761 mmHg 59%
    19:00 +23°C° 0 mm 0 m/S 761 mmHg 67%
    20:00 +25°C° 0 mm 1 m/S 762 mmHg 68%
    21:00 +25°C° 0 mm 1 m/S 762 mmHg 69%
    22:00 +24°C° 0 mm 1 m/S 762 mmHg 70%
    23:00 +24°C° 0 mm 1 m/S 762 mmHg 69%

    22 September, Samstag

    Zeit Temperatur Niederschläge Wind Luftdruck Luftfeuchtigkeit
    00:00 +24°C° 0 mm 1 m/S 762 mmHg 69%
    01:00 +24°C° 0 mm 1 m/S 762 mmHg 68%
    02:00 +23°C° 0 mm 1 m/S 762 mmHg 68%
    03:00 +23°C° 0 mm 1 m/S 762 mmHg 68%
    04:00 +23°C° 0 mm 1 m/S 762 mmHg 67%
    05:00 +24°C° 0 mm 1 m/S 762 mmHg 64%
    06:00 +25°C° 0 mm 1 m/S 762 mmHg 60%
    07:00 +26°C° 0 mm 1 m/S 762 mmHg 56%
    08:00 +28°C° 0 mm 1 m/S 762 mmHg 50%
    09:00 +29°C° 0 mm 1 m/S 762 mmHg 44%
    10:00 +31°C° 0 mm 1 m/S 762 mmHg 38%
    11:00 +32°C° 0 mm 2 m/S 762 mmHg 37%
    12:00 +32°C° 0 mm 2 m/S 762 mmHg 35%
    13:00 +34°C° 0 mm 3 m/S 761 mmHg 33%
    14:00 +33°C° 0 mm 3 m/S 761 mmHg 36%
    15:00 +33°C° 0 mm 3 m/S 761 mmHg 39%
    16:00 +31°C° 0 mm 3 m/S 761 mmHg 42%
    17:00 +29°C° 0 mm 2 m/S 761 mmHg 51%
    18:00 +27°C° 0 mm 2 m/S 761 mmHg 59%
    19:00 +25°C° 0 mm 1 m/S 762 mmHg 67%
    20:00 +25°C° 0 mm 1 m/S 762 mmHg 68%
    21:00 +24°C° 0 mm 1 m/S 762 mmHg 69%
    22:00 +24°C° 0 mm 1 m/S 762 mmHg 71%
    23:00 +24°C° 0 mm 1 m/S 762 mmHg 70%

    23 September, Sonntag

    Zeit Temperatur Niederschläge Wind Luftdruck Luftfeuchtigkeit
    00:00 +23°C° 0 mm 1 m/S 762 mmHg 69%
    01:00 +23°C° 0 mm 1 m/S 762 mmHg 69%
    02:00 +23°C° 0 mm 1 m/S 762 mmHg 68%
    03:00 +23°C° 0 mm 1 m/S 762 mmHg 67%
    04:00 +23°C° 0 mm 1 m/S 762 mmHg 66%
    05:00 +24°C° 0 mm 1 m/S 762 mmHg 62%
    06:00 +25°C° 0 mm 1 m/S 762 mmHg 58%
    07:00 +26°C° 0 mm 1 m/S 763 mmHg 54%
    08:00 +28°C° 0 mm 1 m/S 763 mmHg 49%
    09:00 +30°C° 0 mm 2 m/S 763 mmHg 43%
    10:00 +32°C° 0 mm 2 m/S 763 mmHg 37%
    11:00 +34°C° 0 mm 2 m/S 762 mmHg 35%
    12:00 +34°C° 0 mm 3 m/S 762 mmHg 33%
    13:00 +35°C° 0 mm 4 m/S 762 mmHg 31%
    14:00 +34°C° 0 mm 4 m/S 761 mmHg 34%
    15:00 +34°C° 0 mm 3 m/S 761 mmHg 36%
    16:00 +33°C° 0 mm 3 m/S 761 mmHg 38%
    17:00 +30°C° 0 mm 3 m/S 761 mmHg 45%
    18:00 +28°C° 0 mm 2 m/S 761 mmHg 51%
    19:00 +25°C° 0 mm 1 m/S 762 mmHg 58%
    20:00 +25°C° 0 mm 1 m/S 762 mmHg 58%
    21:00 +25°C° 0 mm 1 m/S 762 mmHg 59%
    22:00 +25°C° 0 mm 1 m/S 762 mmHg 59%
    23:00 +24°C° 0 mm 1 m/S 761 mmHg 59%

    24 September, Montag

    Zeit Temperatur Niederschläge Wind Luftdruck Luftfeuchtigkeit
    00:00 +24°C° 0 mm 1 m/S 761 mmHg 60%
    01:00 +24°C° 0 mm 2 m/S 761 mmHg 60%
    02:00 +24°C° 0 mm 2 m/S 761 mmHg 61%
    03:00 +23°C° 0 mm 2 m/S 760 mmHg 62%
    04:00 +23°C° 0 mm 2 m/S 760 mmHg 64%
    05:00 +24°C° 0 mm 2 m/S 760 mmHg 61%
    06:00 +25°C° 0 mm 3 m/S 760 mmHg 59%
    07:00 +26°C° 0 mm 3 m/S 760 mmHg 57%
    08:00 +28°C° 0 mm 3 m/S 759 mmHg 50%
    09:00 +30°C° 0 mm 4 m/S 759 mmHg 44%
    10:00 +32°C° 0 mm 4 m/S 759 mmHg 38%
    11:00 +33°C° 0 mm 5 m/S 759 mmHg 36%
    12:00 +34°C° 0 mm 5 m/S 758 mmHg 35%
    13:00 +34°C° 0 mm 6 m/S 758 mmHg 33%
    14:00 +34°C° 0 mm 6 m/S 757 mmHg 36%
    15:00 +33°C° 0 mm 6 m/S 757 mmHg 38%
    16:00 +32°C° 0 mm 6 m/S 756 mmHg 41%
    17:00 +29°C° 0 mm 6 m/S 756 mmHg 50%
    18:00 +27°C° 0 mm 6 m/S 756 mmHg 58%
    19:00 +25°C° 0 mm 5 m/S 756 mmHg 66%
    20:00 +25°C° 0.2 mm 5 m/S 756 mmHg 69%
    21:00 +23°C° 0.2 mm 5 m/S 756 mmHg 72%
    22:00 +23°C° 0.2 mm 5 m/S 756 mmHg 75%
    23:00 +22°C° 0.8 mm 5 m/S 756 mmHg 76%
    Mehr zeigen